User: anonymous   Login
Location: Unspecified
(0.0000°N, 0.0000°E)
Time: 20:10:00
(UTC+00:00)
Language:

GOMX4-B - Orbit

View from above orbital plane
View from above orbital plane
View from above satellite
View from above satellite

Ground track
Ground track

The orbit data is extracted from the following two-line orbital elements,

1 43196U 18015E   19340.87609902  .00000283  00000-0  14556-4 0  9994
2 43196  97.4133 106.2619 0020276  67.3175 293.0203 15.24084094102417
Epoch (UTC): 06 December 2019 21:01:34
Eccentricity: 0.0020276
inclination: 97.4133°
perigee height: 479 km
apogee height: 507 km
right ascension of ascending node: 106.2619°
argument of perigee: 67.3175°
revolutions per day: 15.24084094
mean anomaly at epoch: 293.0203°
orbit number at epoch: 10241

The dashed part of the orbit path shows where the satellite is in the earth's shadow,  

DLR